Home > Weather > Longueuil > Past weeks

Flag for Canada Weather for the Past 2 Weeks in Longueuil, Quebec, Canada

Now
23 °F

Cold.


Feels Like: 15 °F
Forecast: 15 / 32 °F
Wind: 6 mph from Northeast

Location: Mc Tavish

Current Time: Feb 7, 2016 at 10:55:29 AM

Latest Report: Feb 7, 2016 at 10:00 AM


Visibility: N/A

Pressure: 30.19 "Hg

Humidity: 67%

Dew point: 13 °F

Location of LongueuilLocation

Historic Weather in Longueuil — Graph

°F

Longueuil Temperature Yesterday

Maximum temperature yesterday: 34 °F (at 11:00 PM)
Minimum temperature yesterday: 24 °F (at 12:00 AM)
Average temperature yesterday: 29 °F

High & Low Weather Summary for the Past Weeks

 TemperatureHumidityPressure
High47 °F (Feb 4, 1:00 AM)100% (Jan 29, 2:00 PM)30.41 "Hg (Jan 29, 2:00 PM)
Low10 °F (Jan 24, 8:00 AM)50% (Feb 1, 2:00 PM)29.45 "Hg (Jan 29, 1:00 PM)
Average28 °F77%29.97 "Hg
* Reported Jan 23 9:00 AM — Feb 7 9:00 AM, Longueuil, Weather by CustomWeather, © 2016

Note: Actual official high and low records may vary slightly from our data, if they occured in-between our weather recording intervals... More about our weather records

Advertising

Longueuil Weather History for the Previous 24 Hours

 ConditionsComfort  
Time TempWeatherWind HumidityBarometerVisibility
9:00 AM
Sun, Feb 7
25 °FCold.6 mph69%30.18 "HgN/A
8:00 AM27 °FChilly.7 mph69%30.16 "HgN/A
7:00 AM27 °FChilly.7 mph71%30.14 "HgN/A
6:00 AM27 °FChilly.5 mph94%30.11 "HgN/A
5:00 AM29 °FChilly.6 mph79%30.08 "HgN/A
4:00 AM33 °FChilly.3 mph79%30.03 "HgN/A
3:00 AM33 °FChilly.5 mph85%30.02 "HgN/A
2:00 AM33 °FChilly.5 mph87%30.01 "HgN/A
1:00 AM33 °FChilly.6 mph84%30.01 "HgN/A
12:00 AM34 °FChilly.7 mph81%30.02 "HgN/A
11:00 PM
Sat, Feb 6
34 °FChilly.6 mph78%30.03 "HgN/A
10:00 PM33 °FChilly.6 mph80%30.03 "HgN/A
9:00 PM33 °FChilly.7 mph80%30.05 "HgN/A
8:00 PM31 °FChilly.7 mph87%30.06 "HgN/A
7:00 PM32 °FChilly.3 mph92%30.06 "HgN/A
6:00 PM32 °FChilly.5 mph96%30.07 "HgN/A
5:00 PM31 °FChilly.3 mph97%30.07 "HgN/A
4:00 PM31 °FChilly.5 mph97%30.07 "HgN/A
3:00 PM30 °FChilly.5 mph95%30.08 "HgN/A
2:00 PM30 °FChilly.3 mph93%30.09 "HgN/A
1:00 PM30 °FChilly.3 mph94%30.11 "HgN/A
12:00 PM29 °FChilly.2 mph95%30.14 "HgN/A
11:00 AM28 °FChilly.3 mph96%30.18 "HgN/A
10:00 AM28 °FChilly.3 mph92%30.20 "HgN/A
Weather by CustomWeather, © 2016

See weather overviewHow to use our weather pages